Starlink 33595

operational
NORAD ID: 62766 Int'l Des: 2025-015 Owner: SPXS Country: US Constellation: starlink
LEOCIRCULAR

Über Starlink 33595

Beschreibung wird geladen...

Live-Position

3D-Globus wird geladen...

Nächste Überflüge

Höhenverlauf

Altitude vs Time

uPlot chart will show altitude changes over time

Zweizeiliger Elementsatz

1 62766U 25015J 25306.39192250 .00027672 00000-0 94273-3 0 9999
2 62766 53.1578 193.5751 0001360 91.8117 268.3039 15.30207432 44990
Epoch: 2. Nov. 2025 • Age: 38 hours

Aktueller Status

Höhe 475.5 km
Geschwindigkeit 7.63 km/s
Subsatellitenpunkt 26.24°N, 53.81°W
Startdatum 21. Jan. 2025
Alter 0.7 years
Typ internet

Technische Details

Klassifizierung Payload
Masse 575.00 kg
Trockenmasse 530.00 kg
Gesamtmasse 575.00 kg
Länge 0.30 m
Durchmesser 4.10 m
Spannweite 29.00 m
Form Box + pan
Hersteller SPXS
Bus-Typ Starlink V2MO
Phasenstatus In Orbit
Besitzer/Staat SPXS/US

Große Konstellationen

Loading constellations...